New Castle, PA

12:07 AM EST on December 04, 2016 (GMT -0500)
New Castle Municipal

Weather History for KUCP - January, 2013

Change the Weather History Date:

Tuesday, January 22, 2013

  Actual Average Record
Temperature  
Mean Temperature 8 °F -  
Max Temperature 12 °F 33 °F 60 °F (1973)
Min Temperature 3 °F 17 °F -14 °F (1984)
Degree Days  
Heating Degree Days 58    
Moisture  
Dew Point -2 °F    
Average Humidity 68    
Maximum Humidity 84    
Minimum Humidity 50    
Precipitation  
Precipitation 0.00 in - - ()
Sea Level Pressure  
Sea Level Pressure 30.26 in    
Wind  
Wind Speed 13 mph (WSW)    
Max Wind Speed 18 mph    
Max Gust Speed 31 mph    
Visibility 8 miles    
Events Snow    
Averages and records for this station are not official NWS values.
T = Trace of Precipitation, MM = Missing Value Source: NWS Daily Summary

Daily Weather History Graph

Daily Weather History Graph

Search for Another Location

Airport or City:

Trip Planner

Search our weather history database for the weather conditions in past years. The results will help you decide how hot, cold, wet, or windy it might be!

Date:

Astronomy

Jan. 22, 2013 Rise Set
Actual Time 7:40 AM EST 5:26 PM EST
Civil Twilight 7:10 AM EST 5:56 PM EST
Nautical Twilight 6:37 AM EST 6:29 PM EST
Astronomical Twilight 6:04 AM EST 7:02 PM EST
Moon 1:48 PM EST (1/22) 4:00 AM EST (1/22)
Length of Visible Light 10h 45m
Length of Day
9h 46m
Waxing Gibbous, 82% of the Moon is Illuminated
Jan 22
Waxing Gibbous
Jan 26
Full
Feb 3
Last Quarter
Feb 10
New
Feb 17
First Quarter

Hourly Weather History & Observations

Time (EST) Temp. Windchill Dew Point Humidity Pressure Visibility Wind Dir Wind Speed Gust Speed Precip Events Conditions
12:08 AM 10.4 °F -7.7 °F -0.4 °F 62% 30.03 in 10.0 mi West 18.4 mph 31.1 mph 0.00 in Snow Light Snow
12:15 AM 8.6 °F -9.5 °F -0.4 °F 67% 30.03 in 10.0 mi West 17.3 mph - 0.00 in   Scattered Clouds
12:56 AM 8.1 °F -8.4 °F 0.1 °F 70% 30.14 in 7.0 mi WSW 13.8 mph - 0.00 in Snow Light Snow
1:56 AM 7.2 °F -10.8 °F -4.0 °F 60% 30.16 in 10.0 mi West 16.1 mph - 0.00 in   Clear
2:56 AM 6.1 °F -10.9 °F -2.9 °F 67% 30.18 in 10.0 mi WSW 13.8 mph - N/A   Clear
3:56 AM 5.0 °F -13.6 °F -4.0 °F 66% 30.19 in 10.0 mi West 16.1 mph - N/A   Clear
4:56 AM 5.0 °F -11.6 °F -4.0 °F 66% 30.21 in 10.0 mi WSW 12.7 mph - N/A   Clear
5:56 AM 5.0 °F -12.3 °F -2.9 °F 70% 30.22 in 10.0 mi WSW 13.8 mph - N/A   Partly Cloudy
6:56 AM 4.1 °F -12.0 °F -4.0 °F 69% 30.25 in 10.0 mi WSW 11.5 mph - N/A   Clear
7:56 AM 4.1 °F -10.2 °F -4.0 °F 69% 30.27 in 10.0 mi WSW 9.2 mph - N/A   Clear
8:56 AM 6.1 °F -9.5 °F -2.9 °F 67% 30.29 in 10.0 mi WSW 11.5 mph - N/A   Clear
9:56 AM 8.1 °F -9.6 °F -1.8 °F 64% 30.32 in 10.0 mi WSW 16.1 mph - N/A   Scattered Clouds
10:32 AM 6.8 °F -11.3 °F -2.2 °F 67% 30.21 in 2.0 mi West 16.1 mph 23.0 mph 0.00 in Snow Light Snow
10:35 AM 6.8 °F -10.0 °F -2.2 °F 67% 30.21 in 1.2 mi West 13.8 mph - 0.00 in Snow Light Snow
10:48 AM 8.6 °F -8.3 °F -0.4 °F 67% 30.21 in 2.0 mi WSW 15.0 mph - 0.00 in Snow Light Snow
10:56 AM 8.1 °F -8.4 °F -4.0 °F 58% 30.33 in 10.0 mi West 13.8 mph - 0.00 in Snow Light Snow
11:56 AM 10.0 °F -7.6 °F -0.9 °F 61% 30.32 in 10.0 mi WSW 17.3 mph - N/A   Scattered Clouds
12:56 PM 8.1 °F -6.2 °F -4.9 °F 56% 30.31 in 10.0 mi West 10.4 mph - 0.00 in Snow Light Snow
1:56 PM 9.1 °F -7.7 °F -6.0 °F 50% 30.30 in 10.0 mi West 15.0 mph - 0.00 in   Scattered Clouds
2:56 PM 12.0 °F -2.7 °F -2.9 °F 51% 30.31 in 10.0 mi WSW 12.7 mph - N/A   Mostly Cloudy
3:56 PM 10.0 °F -7.1 °F -0.9 °F 61% 30.32 in 10.0 mi WSW 16.1 mph - 0.00 in   Scattered Clouds
4:56 PM 8.1 °F -7.0 °F -1.8 °F 64% 30.34 in 5.0 mi West 11.5 mph - 0.00 in Snow Light Snow
5:01 PM 8.6 °F -3.7 °F -0.4 °F 67% 30.22 in 1.8 mi West 8.1 mph - 0.00 in Snow Light Snow
5:04 PM 6.8 °F -7.8 °F -0.4 °F 72% 30.22 in 1.2 mi WSW 10.4 mph - 0.00 in Snow Light Snow
5:11 PM 6.8 °F -5.9 °F 1.4 °F 79% 30.22 in 1.5 mi West 8.1 mph - 0.00 in Snow Light Snow
5:13 PM 6.8 °F -5.9 °F 1.4 °F 79% 30.22 in 2.0 mi WSW 8.1 mph - 0.00 in Snow Light Snow
5:19 PM 6.8 °F -4.8 °F 1.4 °F 79% 30.22 in 10.0 mi WSW 6.9 mph - 0.00 in   Mostly Cloudy
5:56 PM 7.2 °F -5.4 °F -0.9 °F 69% 30.35 in 10.0 mi West 8.1 mph - 0.00 in   Mostly Cloudy
6:56 PM 7.2 °F -3.0 °F -0.9 °F 69% 30.37 in 10.0 mi WSW 5.8 mph - N/A   Scattered Clouds
7:56 PM 5.0 °F - -1.8 °F 73% 30.37 in 10.0 mi Calm Calm - N/A   Clear
8:56 PM 4.1 °F - -1.8 °F 76% 30.37 in 10.0 mi Calm Calm - N/A   Scattered Clouds
9:56 PM 4.1 °F -6.7 °F -1.8 °F 76% 30.36 in 10.0 mi SSW 5.8 mph - N/A   Clear
10:56 PM 3.0 °F -10.5 °F -0.9 °F 84% 30.35 in 10.0 mi SW 8.1 mph - N/A   Clear
11:56 PM 3.0 °F -10.5 °F -1.8 °F 80% 30.35 in 10.0 mi WSW 8.1 mph - N/A   Clear